SCP
0 0 0 0 0 0 0 0 0 0 0 0 0 0 0 0 0 0 0 0 0 0 0 0 0 0 0 0 0 0 0 0 0 0 0 0 0 0 0 0 0 0 0 0 0 0 0 0 -0 0 0 -0 0 0
0 0 0 0 0 0 0 0 0 0 0 0 0 0 0 0 0 0 0 0 0 0 0 0 0 0 0 0 0 0 0 0 0 0 0 0 0 0 0 0 0 0 0 0 0 0 0 0 0 0 0 0 0 -0
0 0 0 0 0 0 0 0 0 0 0 0 0 0 0 0 0 0 0 0 0 0 0 0 0 0 0 0 0 0 0 0 0 0 0 0 0 0 0 0 0 0 0 0 0 0 0 0 0 0 0 0 0 0
0 0 0 0 0 0 0 0 0 0 0 0 0 0 0 0 0 0 0 0 0 0 0 0 0 0 0 0 0 0 0 0 0 0 0 0 0 0 0 0 0 0 0 0 0 0 0 0 0 0 0 0 0 -0
0 0 0 0 0 0 0 0 0 0 0 0 0 0 0 0 0 0 0 0 0 0 0 0 0 0 0 0 0 0 0 0 0 0 0 0 0 0 0 0 0 0 0 0 0 0 0 0 0 0 0 -0 -0 -0
0 0 0 0 0 0 0 0 0 0 0 0 0 0 0 0 0 0 0 0 0 0 0 0 0 0 0 0 0 0 0 0 0 0 0 0 0 0 0 0 0 0 0 0 0 0 0 0 0 0 0 -0 0 0
0 0 0 0 0 0 0 0 0 0 0 0 0 0 0 0 0 0 0 0 0 0 0 0 0 0 0 0 0 0 0 0 0 0 0 0 0 0 0 0 0 -0 0 0 0 0 0 0 0 0 0 0 0 0
0 0 0 0 0 0 0 0 0 0 0 0 0 0 0 0 0 0 0 0 0 0 0 0 0 0 0 0 0 0 0 0 0 0 0 0 0 0 0 0 -0 0 0 0 0 0 0 0 0 0 0 0 0 0
0 0 0 0 0 0 0 0 0 0 0 0 0 0 0 0 0 0 0 0 0 0 0 0 0 0 0 0 0 0 0 0 0 0 0 0 0 0 0 -0 -0 -0 0 0 0 0 0 0 0 0 0 0 -0 -0
0 0 0 0 0 0 0 0 0 0 0 0 0 0 0 0 0 0 0 0 0 0 0 0 0 0 0 0 0 0 0 0 0 0 0 0 0 0 -0 -0 0 0 -0 0 0 0 0 0 -0 0 0 0 0 0
0 0 0 0 0 0 0 0 0 0 0 0 0 0 0 0 0 0 0 0 0 0 0 0 0 0 0 0 0 0 0 0 0 0 0 0 0 0 -0 -0 0 0 0 0 0 0 0 0 0 0 0 0 0 0
0 0 0 0 0 0 0 0 0 0 0 0 0 0 0 0 0 0 0 0 0 0 0 0 0 0 0 0 0 0 0 0 0 0 0 0 0 0 0 0 -0 -0 0 0 0 0 0 0 0 0 0 0 0 0
0 0 0 0 0 0 0 0 0 0 0 0 0 0 0 0 0 0 0 0 0 0 0 0 0 0 0 0 0 0 0 0 0 0 0 0 0 0 0 -0 -0 -0 0 0 0 0 0 -0 0 0 -0 0 0 0
0 0 0 0 0 0 0 0 0 0 0 0 0 0 0 0 0 0 0 0 0 0 0 0 0 0 0 0 0 0 0 0 0 0 0 0 0 0 -0 -0 -0 -0 -0 0 0 0 -0 -0 -0 -0 -0 0 0 0
0 0 0 0 0 0 0 0 0 0 0 0 0 0 0 0 0 0 0 0 0 0 0 0 0 0 0 0 0 0 0 0 0 0 0 0 -0 -0 -0 -0 -0 -0 -0 0 0 0 -0 0 -0 -0 -0 0 0 0
0 0 0 0 0 0 0 0 0 0 0 0 0 0 0 0 0 0 0 0 0 0 0 0 0 0 0 0 0 0 0 0 0 0 0 -0 -0 -0 -0 -0 -0 -0 -0 -0 0 -0 0 -0 -0 -0 -0 0 0 0
0 0 0 0 0 0 0 0 0 0 0 0 0 0 0 0 0 0 0 0 0 0 0 0 0 0 0 0 0 0 0 0 0 0 0 -0 -0 -0 -0 -0 -0 -0 -0 -0 0 -0 0 0 -0 0 0 0 0 0
0 0 0 0 0 0 0 0 0 0 0 0 0 0 0 0 0 0 0 0 0 0 0 0 0 0 0 0 0 0 0 0 0 0 0 0 0 -0 -0 -0 -0 -0 -0 -0 -0 -0 0 -0 -0 -0 0 0 0 0
0 0 0 0 0 0 0 0 0 0 0 0 0 0 0 0 0 0 0 0 0 0 0 0 0 0 0 0 0 0 0 0 0 0 0 0 0 -0 -0 -0 -0 -0 0 -0 -0 -0 -0 -0 -0 -0 0 0 0 0
0 0 0 0 0 0 0 0 0 0 0 0 0 0 0 0 0 0 0 0 0 0 0 0 0 0 0 0 0 0 0 0 0 -0 -0 0 0 -0 0 0 0 -0 -0 -0 -0 -0 -0 -0 -0 0 0 0 0 0
0 0 0 0 0 0 0 0 0 0 0 0 0 0 0 0 0 0 0 0 0 0 0 0 0 0 0 0 0 0 0 0 -0 0 0 0 0 -0 0 0 0 -0 -0 -0 -0 -0 -0 -0 -0 0 0 0 0 0
0 0 0 0 0 0 0 0 0 0 0 0 0 0 0 0 0 0 0 0 0 0 0 0 0 0 0 0 0 0 0 0 0 0 0 0 0 0 0 -0 -0 -0 -0 -0 -0 0 -0 -0 -0 0 0 0 0 0
0 0 0 0 0 0 0 0 0 0 0 0 0 0 0 0 0 0 0 0 0 0 0 0 0 0 0 -0 -0 0 0 0 0 0 0 0 0 0 0 0 0 0 0 0 0 0 0 0 -0 -0 0 0 0 0
0 0 0 0 0 0 0 0 0 0 0 0 0 0 0 0 0 0 0 0 0 0 0 0 0 0 -0 -0 0 0 0 0 0 0 -0 -0 0 0 -0 0 0 0 0 0 0 0 0 0 0 0 0 0 0 0
0 0 0 0 0 0 0 0 0 0 0 0 0 0 0 0 0 0 0 0 0 0 0 0 0 -0 -0 -0 0 0 0 0 0 0 -0 -0 -0 0 0 0 0 0 0 0 0 0 0 0 0 0 0 0 -0 -0
0 -0 -0 0 0 0 0 -0 -0 0 0 0 0 -0 -0 -0 -0 -0 0 0 0 0 0 0 0 0 -0 0 0 0 0 0 0 0 0 0 0 0 0 0 0 0 0 0 0 0 0 0 0 0 0 0 0 0
0 0 -0 0 -0 0 -0 0 -0 0 0 0 0 -0 -0 0 -0 -0 0 0 0 0 0 0 0 0 0 0 0 0 0 0 0 0 0 0 0 0 0 0 0 0 -0 0 0 0 0 0 0 0 0 0 0 0
0 -0 0 -0 0 -0 -0 0 0 0 0 0 0 0 0 0 0 -0 -0 -0 -0 0 0 -0 -0 -0 -0 -0 -0 -0 -0 -0 0 0 0 0 0 0 0 0 0 0 0 0 0 0 0 0 0 0 0 0 0 0
0 0 0 0 0 0 0 0 0 0 0 0 0 0 0 0 -0 -0 -0 -0 -0 -0 0 0 -0 -0 -0 -0 -0 -0 -0 -0 -0 -0 0 0 0 0 -0 0 0 0 0 0 0 0 0 0 0 0 0 0 0 0
0 0 0 0 0 0 0 0 0 0 0 0 0 0 0 0 0 0 0 0 -0 -0 0 0 0 -0 -0 -0 -0 -0 -0 -0 0 0 0 0 0 0 0 0 0 0 0 -0 -0 0 0 0 0 0 0 0 0 0
0 0 0 0 0 0 0 0 0 0 0 0 0 0 0 0 0 0 0 0 0 0 0 0 0 0 0 0 0 0 0 0 0 0 0 0 0 0 0 0 0 0 0 -0 -0 -0 -0 0 0 0 0 0 0 0
0 0 0 0 0 0 0 0 0 0 0 0 0 0 0 0 0 0 0 0 0 0 0 0 0 0 0 0 0 0 0 0 0 0 0 0 0 0 0 0 0 0 0 0 0 -0 0 -0 -0 0 0 0 0 0
0 0 0 0 0 0 0 0 0 0 0 0 0 0 0 0 0 0 0 0 0 0 0 0 0 0 0 0 0 0 0 0 0 0 0 0 0 0 0 0 0 0 0 0 0 0 -0 -0 -0 -0 -0 -0 -0 0
Wind_Speed_500mb
50 49 45 42 37 37 33 32 28 29 32 30 28 28 29 31 30 28 25 17 20 13 40 20 15 18 15 10 4 10 13 4 7 7 2 4 3 6 4 8 9 6 2 5 4 7 13 11 30 2 19 71 62 57
41 50 52 46 38 37 35 34 34 32 27 27 27 26 30 35 34 29 23 25 28 25 36 60 59 53 56 49 31 10 7 5 6 5 0 2 6 5 6 8 1 7 10 4 13 12 31 70 46 65 60 55 67 60
51 48 53 38 33 34 34 33 25 26 29 26 26 24 29 31 32 34 31 30 32 21 40 16 2 2 2 4 11 20 12 15 11 8 1 4 11 6 5 10 5 7 3 8 7 12 24 51 61 63 60 69 72 74
52 46 42 35 39 37 37 37 36 30 28 25 23 24 28 29 28 32 35 37 27 12 10 11 14 46 17 18 27 42 49 31 24 10 4 5 5 17 6 9 8 13 9 10 22 33 39 39 49 69 64 66 73 69
59 56 49 45 44 43 42 41 40 32 26 21 24 25 28 29 29 30 36 22 9 5 9 31 43 6 7 19 19 23 36 47 49 9 10 8 11 5 6 6 6 10 7 6 12 46 49 52 68 70 62 70 70 73
68 61 55 51 51 49 46 44 37 32 22 23 24 26 28 30 27 27 7 3 3 14 13 9 18 9 19 22 20 17 25 37 33 14 13 11 12 12 5 7 3 21 37 44 33 58 64 77 68 61 74 74 70 65
70 67 65 58 51 48 49 47 37 29 25 25 21 23 25 28 25 16 10 12 16 11 8 16 20 11 25 24 22 15 5 14 21 12 10 6 11 17 4 9 20 41 42 54 47 56 53 44 69 73 69 70 65 71
62 61 51 45 46 42 36 38 36 27 26 21 22 22 23 26 27 8 3 4 7 10 7 4 11 20 18 12 13 11 8 8 9 7 4 5 2 6 6 21 44 47 57 43 47 55 61 67 67 65 65 67 65 69
50 46 51 43 41 37 39 39 34 29 22 20 19 18 22 15 4 5 4 7 7 11 6 6 4 8 18 9 11 9 8 5 6 3 5 2 2 5 14 33 41 42 41 49 53 65 62 63 64 62 66 58 68 66
48 42 49 45 37 36 40 36 29 23 22 17 11 6 4 5 4 8 5 2 8 9 10 10 9 7 10 9 7 9 6 3 5 5 6 2 5 16 24 40 34 41 38 45 52 57 70 70 67 63 65 59 59 54
49 51 46 47 47 43 37 29 28 26 21 15 11 7 9 7 4 5 4 7 9 7 13 13 18 9 9 6 7 2 4 3 4 6 3 1 5 10 40 49 40 38 41 43 47 56 55 56 57 61 61 65 51 50
44 47 50 46 41 33 30 30 30 30 20 18 10 8 9 10 7 3 5 4 7 7 10 10 8 14 11 9 5 3 2 3 9 8 4 4 7 40 44 48 48 39 41 47 50 54 57 53 58 58 57 52 46 49
46 45 49 44 38 32 33 33 33 31 25 16 9 7 6 7 3 10 11 7 5 9 11 7 8 7 6 7 6 1 3 9 7 2 4 6 33 34 40 45 45 44 44 48 52 54 57 53 59 53 61 48 43 50
50 42 31 27 28 35 37 36 34 33 20 11 13 3 9 8 9 10 8 7 6 8 8 8 6 4 4 3 4 5 7 2 1 3 5 7 29 39 39 41 43 44 49 52 49 52 56 53 62 51 55 39 44 49
26 32 29 30 35 39 38 37 37 37 14 10 11 9 12 17 13 8 18 13 1 2 2 4 5 2 4 5 5 6 4 5 9 8 6 24 37 35 36 40 44 48 53 52 46 48 52 53 57 55 45 32 40 44
40 35 38 39 40 39 39 38 35 28 9 9 12 6 14 4 13 16 17 14 6 4 3 1 2 2 9 6 5 12 5 10 7 8 17 29 30 30 33 39 46 54 55 49 42 44 48 50 55 54 44 30 41 42
46 35 40 43 42 40 34 33 23 11 12 8 12 22 24 13 13 19 10 12 6 4 3 3 5 12 6 5 6 6 7 5 3 7 18 22 33 31 35 42 50 58 57 45 47 41 44 45 52 47 50 31 39 40
41 33 41 47 49 42 37 17 12 9 11 17 14 17 27 25 22 25 21 23 17 10 14 9 6 6 8 6 5 5 3 9 19 27 34 36 34 35 38 43 51 56 49 44 41 39 44 39 49 50 39 32 37 45
37 38 49 53 55 37 14 16 12 7 23 17 26 35 30 30 37 40 40 35 30 27 10 10 10 8 8 16 11 11 6 8 28 39 41 39 35 38 42 42 46 46 44 46 41 37 44 35 42 43 51 29 30 42
31 35 43 48 47 15 8 8 14 10 8 9 18 25 22 26 31 34 33 34 37 21 17 11 14 24 18 23 26 30 34 42 46 51 55 48 37 40 39 39 40 39 36 29 33 30 38 35 34 38 39 39 23 27
34 32 48 49 35 10 9 8 11 10 11 12 14 15 15 24 30 33 38 39 31 20 17 37 46 54 56 60 63 64 59 52 57 57 61 60 39 40 36 25 31 34 29 28 21 24 30 38 35 34 36 43 39 22
33 46 46 44 8 10 10 15 10 5 9 13 17 21 16 17 27 40 38 30 28 49 56 55 57 55 57 62 60 56 53 55 56 53 49 42 40 39 30 27 31 34 29 22 13 21 22 31 36 35 36 35 37 38
30 29 13 11 7 13 7 9 9 8 7 6 4 6 9 9 10 8 10 15 24 48 49 50 56 57 58 54 55 52 46 43 41 40 36 35 35 33 25 24 25 23 24 17 13 13 16 23 28 35 36 33 32 38
17 12 7 10 12 5 6 8 10 8 7 5 5 7 7 11 6 8 7 13 39 38 37 35 35 38 43 44 44 35 28 26 28 29 28 29 28 23 19 18 17 14 19 10 8 6 8 17 20 24 31 34 33 33
10 9 8 8 11 8 7 6 10 8 7 10 6 7 8 9 4 6 7 15 23 24 28 35 46 45 39 29 18 13 11 13 14 15 13 13 14 9 8 12 13 12 9 4 5 3 8 9 13 17 22 27 31 32
3 15 19 19 12 10 9 6 10 12 7 7 10 9 6 5 5 10 8 12 18 18 14 34 41 32 27 25 22 22 6 4 9 10 11 9 4 4 3 7 10 4 6 6 7 1 5 6 10 14 17 21 26 28
7 10 17 19 11 10 9 15 13 3 5 8 6 6 6 8 10 9 8 6 3 7 12 20 24 25 24 25 20 16 14 14 10 14 17 19 11 5 4 9 5 6 6 7 5 10 9 5 10 14 17 18 17 23
16 9 11 16 20 22 6 3 5 8 9 17 8 10 8 8 7 3 6 13 17 20 25 28 29 30 30 31 28 27 25 27 26 22 25 27 21 13 13 17 5 4 7 6 13 14 7 9 14 13 12 15 15 15
13 16 13 13 18 14 21 19 16 19 20 15 6 6 8 8 16 27 40 45 52 54 58 59 59 55 55 55 60 60 57 48 42 36 30 31 30 24 33 24 15 7 11 15 17 10 9 9 10 13 8 9 17 21
14 27 15 13 10 10 16 30 19 32 37 38 39 35 41 50 63 51 35 34 33 29 30 33 34 38 43 44 45 43 45 44 44 43 37 30 25 23 25 16 14 9 3 5 9 20 22 17 10 12 11 15 16 16
8 13 13 13 10 17 35 39 34 35 31 29 29 30 36 42 23 32 45 30 23 16 9 11 19 24 27 30 29 27 27 34 37 34 32 29 25 26 25 17 17 11 8 16 19 23 23 19 18 15 15 15 11 11
11 16 8 5 8 10 5 4 5 5 4 1 3 4 5 7 14 33 49 35 40 43 35 23 15 18 28 30 28 25 20 25 30 33 31 23 24 29 26 21 23 20 16 23 20 18 17 19 20 20 14 11 6 5
10 10 11 9 6 4 5 7 6 5 7 8 15 17 14 10 14 42 43 40 39 37 39 38 31 30 29 27 30 28 26 28 27 24 22 21 21 20 21 23 26 21 19 22 23 20 18 20 18 18 17 12 6 10
Wind_Direction_500mb
265 259 252 256 271 276 276 280 286 304 301 303 311 317 328 336 348 346 338 331 328 278 288 263 247 237 240 215 180 321 336 284 350 52 86 294 232 277 289 252 267 259 185 250 299 270 284 194 347 105 283 302 291 296
255 252 247 256 273 272 271 279 285 288 300 294 301 306 320 325 334 339 337 324 319 293 280 294 290 279 263 260 265 248 254 257 247 98 220 8 274 262 196 281 54 276 202 254 204 233 278 296 296 305 303 300 307 304
255 255 243 257 263 263 269 272 279 286 279 285 287 301 308 318 327 328 330 328 329 306 306 312 357 173 333 317 274 224 231 231 230 221 245 274 256 140 231 242 247 265 262 248 314 261 279 300 305 305 314 310 313 314
246 242 250 247 255 256 263 266 276 282 266 270 283 296 303 313 321 322 324 321 319 296 296 283 293 310 300 286 263 262 257 252 235 287 291 245 256 198 239 258 231 264 256 238 262 282 302 291 306 308 310 321 320 318
242 246 244 247 249 253 257 272 263 269 253 268 280 291 298 307 316 320 315 313 305 325 289 291 316 7 25 343 306 269 252 246 249 269 214 223 230 204 222 247 246 220 242 282 284 295 290 301 307 316 323 323 324 320
242 242 244 250 243 250 261 264 253 247 243 266 279 289 297 303 316 329 308 359 69 14 325 305 312 274 339 341 332 326 258 244 232 207 228 224 208 187 248 252 290 353 320 302 291 305 307 309 312 323 324 328 325 316
236 239 244 243 248 255 254 244 230 228 243 250 266 283 291 298 309 311 277 283 285 322 312 302 311 300 347 352 333 314 274 209 216 227 229 230 213 206 241 275 324 328 315 323 314 315 315 316 317 325 331 326 328 324
236 238 238 236 241 241 236 222 216 231 244 255 269 279 288 295 303 328 24 311 283 255 276 286 283 318 349 326 317 319 286 249 224 267 259 238 246 234 276 259 302 315 319 322 324 322 318 322 325 330 330 330 329 334
231 230 233 232 234 224 217 210 220 221 234 248 263 281 295 285 239 189 249 285 255 227 278 209 280 277 334 310 297 299 327 338 316 307 297 310 48 236 246 314 315 324 323 325 326 325 330 327 328 325 332 331 338 339
224 231 223 224 214 209 208 210 213 219 222 231 251 247 225 180 227 302 297 202 208 216 230 243 234 267 311 320 303 327 350 337 327 258 325 300 267 281 336 329 326 325 315 323 322 325 327 328 328 326 331 330 342 344
223 230 211 202 195 196 200 206 210 204 200 195 187 193 184 191 233 241 243 219 193 227 216 234 226 248 270 202 253 279 297 300 333 277 274 277 284 283 342 336 331 326 326 320 324 331 335 331 337 333 333 337 347 349
201 202 190 188 193 196 207 210 203 194 186 181 165 170 175 198 205 212 225 239 220 236 203 202 237 244 274 242 240 237 256 360 255 332 271 284 263 327 337 336 339 337 330 328 332 338 343 343 341 341 337 346 351 357
186 187 187 201 204 205 202 195 190 190 179 166 185 172 172 178 107 205 202 216 225 201 196 226 285 258 255 248 246 140 226 234 318 344 329 244 284 334 338 342 339 342 334 327 332 343 346 346 347 345 349 353 360 9
175 178 186 200 210 197 189 183 181 178 166 174 163 231 194 194 231 201 192 193 204 232 232 269 276 264 301 298 226 212 230 135 73 359 257 249 303 331 334 339 340 344 341 332 334 342 349 351 349 347 352 1 10 13
195 187 201 211 186 177 178 178 178 176 172 168 179 221 219 227 239 244 230 254 68 16 278 249 274 254 296 314 260 306 230 226 195 226 237 301 323 328 336 345 343 340 338 335 338 343 350 352 355 355 356 11 16 17
173 170 181 176 172 173 175 175 173 176 191 199 223 243 233 260 237 238 213 188 135 60 125 188 87 238 238 217 240 222 179 215 242 222 287 317 333 332 336 338 344 344 341 342 342 344 352 355 356 1 5 18 20 21
170 175 176 172 167 168 169 169 164 182 201 222 248 234 242 269 245 208 176 216 219 226 180 170 221 226 301 242 246 179 208 242 231 331 347 339 342 333 332 331 339 348 346 355 352 350 358 356 359 3 3 19 27 28
179 177 172 164 163 162 168 165 170 201 234 240 244 248 227 234 244 248 242 208 255 220 202 208 225 225 226 218 257 236 233 353 333 327 333 338 332 334 335 331 334 341 347 350 352 355 5 3 9 14 7 14 37 39
168 160 163 169 171 158 152 175 193 238 233 239 251 255 253 257 260 260 258 257 246 243 238 202 225 205 223 228 242 238 221 315 310 310 321 317 321 328 323 322 330 339 350 357 351 359 7 4 9 3 15 24 49 39
161 162 172 176 181 158 158 193 190 236 248 243 245 251 246 247 267 271 265 252 250 239 206 219 209 221 214 238 251 279 273 285 302 303 295 303 311 315 325 320 327 337 347 351 353 6 11 18 20 8 4 24 35 41
164 172 174 176 175 165 184 193 214 232 253 249 268 255 261 256 255 258 260 253 236 225 230 239 245 251 255 259 266 274 277 278 278 279 284 292 303 312 312 313 327 346 350 353 357 14 17 25 26 19 16 22 36 42
152 164 161 177 149 185 239 220 229 266 252 256 270 257 252 243 253 257 255 229 241 245 244 247 249 253 257 263 270 273 278 280 282 282 280 282 290 303 305 293 309 329 344 350 10 18 20 28 27 32 31 31 37 45
138 161 128 140 168 200 251 209 222 224 238 252 254 249 239 236 240 240 238 232 244 251 252 252 251 254 259 269 275 279 279 279 275 270 269 274 289 299 289 278 295 315 328 342 7 10 24 32 25 32 37 42 52 55
150 150 151 176 194 210 226 221 217 237 242 248 233 260 251 228 238 231 244 246 259 266 252 238 228 241 254 263 269 271 270 254 249 251 259 273 283 291 295 275 271 257 306 320 329 0 36 47 30 31 36 43 52 60
140 177 190 203 208 205 220 214 204 212 241 204 227 253 253 214 231 241 236 267 280 269 243 235 236 240 247 248 244 226 205 209 230 247 239 228 258 261 250 219 224 268 300 286 306 356 48 60 46 32 39 41 49 63
188 200 190 197 198 207 208 218 206 204 205 211 232 245 235 205 237 245 233 244 250 266 263 220 222 219 209 203 180 176 155 287 214 178 171 192 179 15 210 202 233 31 103 122 333 9 66 65 74 53 50 57 55 57
242 228 217 208 209 206 242 251 259 187 219 232 217 213 210 233 236 251 237 253 319 241 202 190 196 201 202 201 204 210 252 296 294 228 225 229 240 294 240 187 210 341 330 126 181 102 78 92 101 78 65 61 73 72
233 243 208 196 207 219 244 241 215 230 225 222 226 207 213 219 246 308 214 207 204 208 223 227 234 239 239 235 245 258 266 269 268 263 251 243 246 246 209 206 230 296 235 144 151 167 127 103 99 95 69 56 60 91
227 222 207 231 216 219 213 207 218 224 221 207 211 234 240 248 280 288 283 273 264 260 253 247 245 246 252 256 262 266 268 262 248 248 251 248 262 226 195 216 251 226 197 195 222 219 163 169 114 101 94 92 88 89
232 219 222 218 211 225 224 211 236 243 242 242 245 257 269 274 285 303 306 317 308 281 255 254 249 243 241 240 241 237 233 223 223 228 238 240 197 191 207 210 182 166 102 94 181 161 160 162 151 143 112 111 95 98
236 203 221 224 254 245 247 244 247 247 261 269 256 260 270 285 310 7 5 45 65 63 94 174 190 203 213 217 214 205 197 201 203 206 195 178 176 181 177 177 183 161 125 124 129 148 152 150 150 150 137 134 128 117
214 209 219 243 266 314 46 150 165 174 181 265 2 12 340 327 349 22 37 66 76 79 85 87 86 115 124 127 133 138 156 174 179 177 173 175 173 176 182 192 189 176 158 157 156 167 174 165 162 160 154 161 163 170
220 219 230 275 280 287 189 187 180 120 67 48 40 37 27 32 15 12 31 50 65 74 76 74 82 110 122 124 111 109 123 140 153 164 171 172 176 185 188 191 187 181 184 170 182 186 192 199 195 193 194 190 180 177
Wind_Speed_850mb
50 49 45 42 37 37 33 32 28 29 32 30 28 28 29 31 30 28 25 17 20 13 40 20 15 18 15 10 4 10 13 4 7 7 2 4 3 6 4 8 9 6 2 5 4 7 13 11 30 2 19 71 62 57
41 50 52 46 38 37 35 34 34 32 27 27 27 26 30 35 34 29 23 25 28 25 36 60 59 53 56 49 31 10 7 5 6 5 0 2 6 5 6 8 1 7 10 4 13 12 31 70 46 65 60 55 67 60
51 48 53 38 33 34 34 33 25 26 29 26 26 24 29 31 32 34 31 30 32 21 40 16 2 2 2 4 11 20 12 15 11 8 1 4 11 6 5 10 5 7 3 8 7 12 24 51 61 63 60 69 72 74
52 46 42 35 39 37 37 37 36 30 28 25 23 24 28 29 28 32 35 37 27 12 10 11 14 46 17 18 27 42 49 31 24 10 4 5 5 17 6 9 8 13 9 10 22 33 39 39 49 69 64 66 73 69
59 56 49 45 44 43 42 41 40 32 26 21 24 25 28 29 29 30 36 22 9 5 9 31 43 6 7 19 19 23 36 47 49 9 10 8 11 5 6 6 6 10 7 6 12 46 49 52 68 70 62 70 70 73
68 61 55 51 51 49 46 44 37 32 22 23 24 26 28 30 27 27 7 3 3 14 13 9 18 9 19 22 20 17 25 37 33 14 13 11 12 12 5 7 3 21 37 44 33 58 64 77 68 61 74 74 70 65
70 67 65 58 51 48 49 47 37 29 25 25 21 23 25 28 25 16 10 12 16 11 8 16 20 11 25 24 22 15 5 14 21 12 10 6 11 17 4 9 20 41 42 54 47 56 53 44 69 73 69 70 65 71
62 61 51 45 46 42 36 38 36 27 26 21 22 22 23 26 27 8 3 4 7 10 7 4 11 20 18 12 13 11 8 8 9 7 4 5 2 6 6 21 44 47 57 43 47 55 61 67 67 65 65 67 65 69
50 46 51 43 41 37 39 39 34 29 22 20 19 18 22 15 4 5 4 7 7 11 6 6 4 8 18 9 11 9 8 5 6 3 5 2 2 5 14 33 41 42 41 49 53 65 62 63 64 62 66 58 68 66
48 42 49 45 37 36 40 36 29 23 22 17 11 6 4 5 4 8 5 2 8 9 10 10 9 7 10 9 7 9 6 3 5 5 6 2 5 16 24 40 34 41 38 45 52 57 70 70 67 63 65 59 59 54
49 51 46 47 47 43 37 29 28 26 21 15 11 7 9 7 4 5 4 7 9 7 13 13 18 9 9 6 7 2 4 3 4 6 3 1 5 10 40 49 40 38 41 43 47 56 55 56 57 61 61 65 51 50
44 47 50 46 41 33 30 30 30 30 20 18 10 8 9 10 7 3 5 4 7 7 10 10 8 14 11 9 5 3 2 3 9 8 4 4 7 40 44 48 48 39 41 47 50 54 57 53 58 58 57 52 46 49
46 45 49 44 38 32 33 33 33 31 25 16 9 7 6 7 3 10 11 7 5 9 11 7 8 7 6 7 6 1 3 9 7 2 4 6 33 34 40 45 45 44 44 48 52 54 57 53 59 53 61 48 43 50
50 42 31 27 28 35 37 36 34 33 20 11 13 3 9 8 9 10 8 7 6 8 8 8 6 4 4 3 4 5 7 2 1 3 5 7 29 39 39 41 43 44 49 52 49 52 56 53 62 51 55 39 44 49
26 32 29 30 35 39 38 37 37 37 14 10 11 9 12 17 13 8 18 13 1 2 2 4 5 2 4 5 5 6 4 5 9 8 6 24 37 35 36 40 44 48 53 52 46 48 52 53 57 55 45 32 40 44
40 35 38 39 40 39 39 38 35 28 9 9 12 6 14 4 13 16 17 14 6 4 3 1 2 2 9 6 5 12 5 10 7 8 17 29 30 30 33 39 46 54 55 49 42 44 48 50 55 54 44 30 41 42
46 35 40 43 42 40 34 33 23 11 12 8 12 22 24 13 13 19 10 12 6 4 3 3 5 12 6 5 6 6 7 5 3 7 18 22 33 31 35 42 50 58 57 45 47 41 44 45 52 47 50 31 39 40
41 33 41 47 49 42 37 17 12 9 11 17 14 17 27 25 22 25 21 23 17 10 14 9 6 6 8 6 5 5 3 9 19 27 34 36 34 35 38 43 51 56 49 44 41 39 44 39 49 50 39 32 37 45
37 38 49 53 55 37 14 16 12 7 23 17 26 35 30 30 37 40 40 35 30 27 10 10 10 8 8 16 11 11 6 8 28 39 41 39 35 38 42 42 46 46 44 46 41 37 44 35 42 43 51 29 30 42
31 35 43 48 47 15 8 8 14 10 8 9 18 25 22 26 31 34 33 34 37 21 17 11 14 24 18 23 26 30 34 42 46 51 55 48 37 40 39 39 40 39 36 29 33 30 38 35 34 38 39 39 23 27
34 32 48 49 35 10 9 8 11 10 11 12 14 15 15 24 30 33 38 39 31 20 17 37 46 54 56 60 63 64 59 52 57 57 61 60 39 40 36 25 31 34 29 28 21 24 30 38 35 34 36 43 39 22
33 46 46 44 8 10 10 15 10 5 9 13 17 21 16 17 27 40 38 30 28 49 56 55 57 55 57 62 60 56 53 55 56 53 49 42 40 39 30 27 31 34 29 22 13 21 22 31 36 35 36 35 37 38
30 29 13 11 7 13 7 9 9 8 7 6 4 6 9 9 10 8 10 15 24 48 49 50 56 57 58 54 55 52 46 43 41 40 36 35 35 33 25 24 25 23 24 17 13 13 16 23 28 35 36 33 32 38
17 12 7 10 12 5 6 8 10 8 7 5 5 7 7 11 6 8 7 13 39 38 37 35 35 38 43 44 44 35 28 26 28 29 28 29 28 23 19 18 17 14 19 10 8 6 8 17 20 24 31 34 33 33
10 9 8 8 11 8 7 6 10 8 7 10 6 7 8 9 4 6 7 15 23 24 28 35 46 45 39 29 18 13 11 13 14 15 13 13 14 9 8 12 13 12 9 4 5 3 8 9 13 17 22 27 31 32
3 15 19 19 12 10 9 6 10 12 7 7 10 9 6 5 5 10 8 12 18 18 14 34 41 32 27 25 22 22 6 4 9 10 11 9 4 4 3 7 10 4 6 6 7 1 5 6 10 14 17 21 26 28
7 10 17 19 11 10 9 15 13 3 5 8 6 6 6 8 10 9 8 6 3 7 12 20 24 25 24 25 20 16 14 14 10 14 17 19 11 5 4 9 5 6 6 7 5 10 9 5 10 14 17 18 17 23
16 9 11 16 20 22 6 3 5 8 9 17 8 10 8 8 7 3 6 13 17 20 25 28 29 30 30 31 28 27 25 27 26 22 25 27 21 13 13 17 5 4 7 6 13 14 7 9 14 13 12 15 15 15
13 16 13 13 18 14 21 19 16 19 20 15 6 6 8 8 16 27 40 45 52 54 58 59 59 55 55 55 60 60 57 48 42 36 30 31 30 24 33 24 15 7 11 15 17 10 9 9 10 13 8 9 17 21
14 27 15 13 10 10 16 30 19 32 37 38 39 35 41 50 63 51 35 34 33 29 30 33 34 38 43 44 45 43 45 44 44 43 37 30 25 23 25 16 14 9 3 5 9 20 22 17 10 12 11 15 16 16
8 13 13 13 10 17 35 39 34 35 31 29 29 30 36 42 23 32 45 30 23 16 9 11 19 24 27 30 29 27 27 34 37 34 32 29 25 26 25 17 17 11 8 16 19 23 23 19 18 15 15 15 11 11
11 16 8 5 8 10 5 4 5 5 4 1 3 4 5 7 14 33 49 35 40 43 35 23 15 18 28 30 28 25 20 25 30 33 31 23 24 29 26 21 23 20 16 23 20 18 17 19 20 20 14 11 6 5
10 10 11 9 6 4 5 7 6 5 7 8 15 17 14 10 14 42 43 40 39 37 39 38 31 30 29 27 30 28 26 28 27 24 22 21 21 20 21 23 26 21 19 22 23 20 18 20 18 18 17 12 6 10
Wind_Direction_850mb
265 259 252 256 271 276 276 280 286 304 301 303 311 317 328 336 348 346 338 331 328 278 288 263 247 237 240 215 180 321 336 284 350 52 86 294 232 277 289 252 267 259 185 250 299 270 284 194 347 105 283 302 291 296
255 252 247 256 273 272 271 279 285 288 300 294 301 306 320 325 334 339 337 324 319 293 280 294 290 279 263 260 265 248 254 257 247 98 220 8 274 262 196 281 54 276 202 254 204 233 278 296 296 305 303 300 307 304
255 255 243 257 263 263 269 272 279 286 279 285 287 301 308 318 327 328 330 328 329 306 306 312 357 173 333 317 274 224 231 231 230 221 245 274 256 140 231 242 247 265 262 248 314 261 279 300 305 305 314 310 313 314
246 242 250 247 255 256 263 266 276 282 266 270 283 296 303 313 321 322 324 321 319 296 296 283 293 310 300 286 263 262 257 252 235 287 291 245 256 198 239 258 231 264 256 238 262 282 302 291 306 308 310 321 320 318
242 246 244 247 249 253 257 272 263 269 253 268 280 291 298 307 316 320 315 313 305 325 289 291 316 7 25 343 306 269 252 246 249 269 214 223 230 204 222 247 246 220 242 282 284 295 290 301 307 316 323 323 324 320
242 242 244 250 243 250 261 264 253 247 243 266 279 289 297 303 316 329 308 359 69 14 325 305 312 274 339 341 332 326 258 244 232 207 228 224 208 187 248 252 290 353 320 302 291 305 307 309 312 323 324 328 325 316
236 239 244 243 248 255 254 244 230 228 243 250 266 283 291 298 309 311 277 283 285 322 312 302 311 300 347 352 333 314 274 209 216 227 229 230 213 206 241 275 324 328 315 323 314 315 315 316 317 325 331 326 328 324
236 238 238 236 241 241 236 222 216 231 244 255 269 279 288 295 303 328 24 311 283 255 276 286 283 318 349 326 317 319 286 249 224 267 259 238 246 234 276 259 302 315 319 322 324 322 318 322 325 330 330 330 329 334
231 230 233 232 234 224 217 210 220 221 234 248 263 281 295 285 239 189 249 285 255 227 278 209 280 277 334 310 297 299 327 338 316 307 297 310 48 236 246 314 315 324 323 325 326 325 330 327 328 325 332 331 338 339
224 231 223 224 214 209 208 210 213 219 222 231 251 247 225 180 227 302 297 202 208 216 230 243 234 267 311 320 303 327 350 337 327 258 325 300 267 281 336 329 326 325 315 323 322 325 327 328 328 326 331 330 342 344
223 230 211 202 195 196 200 206 210 204 200 195 187 193 184 191 233 241 243 219 193 227 216 234 226 248 270 202 253 279 297 300 333 277 274 277 284 283 342 336 331 326 326 320 324 331 335 331 337 333 333 337 347 349
201 202 190 188 193 196 207 210 203 194 186 181 165 170 175 198 205 212 225 239 220 236 203 202 237 244 274 242 240 237 256 360 255 332 271 284 263 327 337 336 339 337 330 328 332 338 343 343 341 341 337 346 351 357
186 187 187 201 204 205 202 195 190 190 179 166 185 172 172 178 107 205 202 216 225 201 196 226 285 258 255 248 246 140 226 234 318 344 329 244 284 334 338 342 339 342 334 327 332 343 346 346 347 345 349 353 360 9
175 178 186 200 210 197 189 183 181 178 166 174 163 231 194 194 231 201 192 193 204 232 232 269 276 264 301 298 226 212 230 135 73 359 257 249 303 331 334 339 340 344 341 332 334 342 349 351 349 347 352 1 10 13
195 187 201 211 186 177 178 178 178 176 172 168 179 221 219 227 239 244 230 254 68 16 278 249 274 254 296 314 260 306 230 226 195 226 237 301 323 328 336 345 343 340 338 335 338 343 350 352 355 355 356 11 16 17
173 170 181 176 172 173 175 175 173 176 191 199 223 243 233 260 237 238 213 188 135 60 125 188 87 238 238 217 240 222 179 215 242 222 287 317 333 332 336 338 344 344 341 342 342 344 352 355 356 1 5 18 20 21
170 175 176 172 167 168 169 169 164 182 201 222 248 234 242 269 245 208 176 216 219 226 180 170 221 226 301 242 246 179 208 242 231 331 347 339 342 333 332 331 339 348 346 355 352 350 358 356 359 3 3 19 27 28
179 177 172 164 163 162 168 165 170 201 234 240 244 248 227 234 244 248 242 208 255 220 202 208 225 225 226 218 257 236 233 353 333 327 333 338 332 334 335 331 334 341 347 350 352 355 5 3 9 14 7 14 37 39
168 160 163 169 171 158 152 175 193 238 233 239 251 255 253 257 260 260 258 257 246 243 238 202 225 205 223 228 242 238 221 315 310 310 321 317 321 328 323 322 330 339 350 357 351 359 7 4 9 3 15 24 49 39
161 162 172 176 181 158 158 193 190 236 248 243 245 251 246 247 267 271 265 252 250 239 206 219 209 221 214 238 251 279 273 285 302 303 295 303 311 315 325 320 327 337 347 351 353 6 11 18 20 8 4 24 35 41
164 172 174 176 175 165 184 193 214 232 253 249 268 255 261 256 255 258 260 253 236 225 230 239 245 251 255 259 266 274 277 278 278 279 284 292 303 312 312 313 327 346 350 353 357 14 17 25 26 19 16 22 36 42
152 164 161 177 149 185 239 220 229 266 252 256 270 257 252 243 253 257 255 229 241 245 244 247 249 253 257 263 270 273 278 280 282 282 280 282 290 303 305 293 309 329 344 350 10 18 20 28 27 32 31 31 37 45
138 161 128 140 168 200 251 209 222 224 238 252 254 249 239 236 240 240 238 232 244 251 252 252 251 254 259 269 275 279 279 279 275 270 269 274 289 299 289 278 295 315 328 342 7 10 24 32 25 32 37 42 52 55
150 150 151 176 194 210 226 221 217 237 242 248 233 260 251 228 238 231 244 246 259 266 252 238 228 241 254 263 269 271 270 254 249 251 259 273 283 291 295 275 271 257 306 320 329 0 36 47 30 31 36 43 52 60
140 177 190 203 208 205 220 214 204 212 241 204 227 253 253 214 231 241 236 267 280 269 243 235 236 240 247 248 244 226 205 209 230 247 239 228 258 261 250 219 224 268 300 286 306 356 48 60 46 32 39 41 49 63
188 200 190 197 198 207 208 218 206 204 205 211 232 245 235 205 237 245 233 244 250 266 263 220 222 219 209 203 180 176 155 287 214 178 171 192 179 15 210 202 233 31 103 122 333 9 66 65 74 53 50 57 55 57
242 228 217 208 209 206 242 251 259 187 219 232 217 213 210 233 236 251 237 253 319 241 202 190 196 201 202 201 204 210 252 296 294 228 225 229 240 294 240 187 210 341 330 126 181 102 78 92 101 78 65 61 73 72
233 243 208 196 207 219 244 241 215 230 225 222 226 207 213 219 246 308 214 207 204 208 223 227 234 239 239 235 245 258 266 269 268 263 251 243 246 246 209 206 230 296 235 144 151 167 127 103 99 95 69 56 60 91
227 222 207 231 216 219 213 207 218 224 221 207 211 234 240 248 280 288 283 273 264 260 253 247 245 246 252 256 262 266 268 262 248 248 251 248 262 226 195 216 251 226 197 195 222 219 163 169 114 101 94 92 88 89
232 219 222 218 211 225 224 211 236 243 242 242 245 257 269 274 285 303 306 317 308 281 255 254 249 243 241 240 241 237 233 223 223 228 238 240 197 191 207 210 182 166 102 94 181 161 160 162 151 143 112 111 95 98
236 203 221 224 254 245 247 244 247 247 261 269 256 260 270 285 310 7 5 45 65 63 94 174 190 203 213 217 214 205 197 201 203 206 195 178 176 181 177 177 183 161 125 124 129 148 152 150 150 150 137 134 128 117
214 209 219 243 266 314 46 150 165 174 181 265 2 12 340 327 349 22 37 66 76 79 85 87 86 115 124 127 133 138 156 174 179 177 173 175 173 176 182 192 189 176 158 157 156 167 174 165 162 160 154 161 163 170
220 219 230 275 280 287 189 187 180 120 67 48 40 37 27 32 15 12 31 50 65 74 76 74 82 110 122 124 111 109 123 140 153 164 171 172 176 185 188 191 187 181 184 170 182 186 192 199 195 193 194 190 180 177